When you browse on this site, cookies collect data to enhance your experience and personalize the content and advertising you see.
Visit our Privacy Policy to learn more. By continuing to use the site, you agree to this use of cookies and data.
  • En España
  • Lista de países
  • Para 7 días
  • Temperatura del agua
  • Mapa Satelital
  • El tiempo en el mapa
  • Informadores
  • user-avatar
    Iniciar sesión

    Tiempo cada hora Escaldes-Engordany

    Hoy, 21 Julio, Domingo

    Tiempo Temperatura Precipitaciones Viento Presión Humedad
    00:00 +15°C° 0 mm 0 mps 643 mmHg 86%
    01:00 +16°C° 0 mm 1 mps 643 mmHg 85%
    02:00 +16°C° 0 mm 1 mps 643 mmHg 84%
    03:00 +16°C° 0 mm 1 mps 643 mmHg 83%
    04:00 +16°C° 0 mm 1 mps 643 mmHg 79%
    05:00 +18°C° 0 mm 1 mps 644 mmHg 75%
    06:00 +19°C° 0 mm 1 mps 644 mmHg 71%
    07:00 +21°C° 0 mm 1 mps 645 mmHg 62%
    08:00 +24°C° 0 mm 1 mps 646 mmHg 53%
    09:00 +26°C° 0 mm 2 mps 647 mmHg 44%
    10:00 +27°C° 0 mm 2 mps 647 mmHg 42%
    11:00 +28°C° 0 mm 2 mps 647 mmHg 40%
    12:00 +29°C° 0 mm 2 mps 647 mmHg 39%
    13:00 +29°C° 0.1 mm 2 mps 647 mmHg 40%
    14:00 +29°C° 0.1 mm 3 mps 647 mmHg 41%
    15:00 +29°C° 0.1 mm 3 mps 647 mmHg 43%
    16:00 +27°C° 0.3 mm 2 mps 646 mmHg 50%
    17:00 +26°C° 0.3 mm 2 mps 646 mmHg 57%
    18:00 +25°C° 0.3 mm 1 mps 645 mmHg 64%
    19:00 +23°C° 0.1 mm 1 mps 645 mmHg 68%
    20:00 +21°C° 0.1 mm 1 mps 645 mmHg 72%
    21:00 +19°C° 0.1 mm 1 mps 645 mmHg 77%
    22:00 +19°C° 0 mm 1 mps 645 mmHg 77%
    23:00 +19°C° 0 mm 1 mps 645 mmHg 77%

    Mañana, 22 Julio, Lunes

    Tiempo Temperatura Precipitaciones Viento Presión Humedad
    00:00 +18°C° 0 mm 1 mps 645 mmHg 77%
    01:00 +18°C° 0 mm 1 mps 645 mmHg 76%
    02:00 +18°C° 0 mm 1 mps 644 mmHg 75%
    03:00 +18°C° 0 mm 1 mps 644 mmHg 75%
    04:00 +19°C° 0 mm 1 mps 644 mmHg 73%
    05:00 +19°C° 0 mm 1 mps 645 mmHg 72%
    06:00 +20°C° 0 mm 1 mps 645 mmHg 70%
    07:00 +23°C° 0 mm 1 mps 646 mmHg 59%
    08:00 +25°C° 0 mm 1 mps 647 mmHg 47%
    09:00 +28°C° 0 mm 1 mps 648 mmHg 36%
    10:00 +29°C° 0 mm 1 mps 648 mmHg 33%
    11:00 +30°C° 0 mm 2 mps 648 mmHg 31%
    12:00 +31°C° 0 mm 2 mps 648 mmHg 29%
    13:00 +30°C° 0 mm 2 mps 648 mmHg 31%
    14:00 +30°C° 0 mm 2 mps 647 mmHg 34%
    15:00 +30°C° 0 mm 2 mps 647 mmHg 36%
    16:00 +28°C° 0.1 mm 2 mps 646 mmHg 43%
    17:00 +27°C° 0.1 mm 1 mps 646 mmHg 49%
    18:00 +25°C° 0.1 mm 1 mps 645 mmHg 56%
    19:00 +24°C° 0 mm 1 mps 644 mmHg 58%
    20:00 +22°C° 0 mm 1 mps 644 mmHg 60%
    21:00 +20°C° 0 mm 1 mps 644 mmHg 62%
    22:00 +19°C° 0 mm 1 mps 643 mmHg 59%
    23:00 +19°C° 0 mm 1 mps 643 mmHg 56%

    Pasado mañana, 23 Julio, Martes

    Tiempo Temperatura Precipitaciones Viento Presión Humedad
    00:00 +19°C° 0 mm 1 mps 643 mmHg 53%
    01:00 +19°C° 0 mm 1 mps 643 mmHg 52%
    02:00 +19°C° 0 mm 1 mps 643 mmHg 51%
    03:00 +19°C° 0 mm 1 mps 643 mmHg 50%
    04:00 +20°C° 0 mm 1 mps 643 mmHg 50%
    05:00 +20°C° 0 mm 1 mps 643 mmHg 50%
    06:00 +21°C° 0 mm 1 mps 643 mmHg 51%
    07:00 +23°C° 0 mm 1 mps 644 mmHg 43%
    08:00 +26°C° 0 mm 1 mps 645 mmHg 36%
    09:00 +29°C° 0 mm 2 mps 646 mmHg 28%
    10:00 +29°C° 0 mm 2 mps 646 mmHg 27%
    11:00 +30°C° 0 mm 2 mps 646 mmHg 25%
    12:00 +31°C° 0 mm 2 mps 646 mmHg 23%
    13:00 +31°C° 0 mm 2 mps 645 mmHg 24%
    14:00 +31°C° 0 mm 2 mps 645 mmHg 25%
    15:00 +31°C° 0 mm 2 mps 645 mmHg 26%
    16:00 +29°C° 0 mm 2 mps 644 mmHg 34%
    17:00 +27°C° 0 mm 2 mps 643 mmHg 41%
    18:00 +26°C° 0 mm 1 mps 643 mmHg 49%
    19:00 +24°C° 0 mm 1 mps 643 mmHg 52%
    20:00 +22°C° 0 mm 1 mps 642 mmHg 55%
    21:00 +20°C° 0 mm 1 mps 642 mmHg 59%
    22:00 +20°C° 0 mm 1 mps 642 mmHg 57%
    23:00 +19°C° 0 mm 1 mps 642 mmHg 56%

    24 Julio, Miércoles

    Tiempo Temperatura Precipitaciones Viento Presión Humedad
    00:00 +19°C° 0 mm 1 mps 642 mmHg 55%
    01:00 +19°C° 0 mm 1 mps 641 mmHg 54%
    02:00 +19°C° 0 mm 1 mps 641 mmHg 53%
    03:00 +19°C° 0 mm 1 mps 641 mmHg 53%
    04:00 +19°C° 0 mm 1 mps 641 mmHg 54%
    05:00 +20°C° 0 mm 1 mps 642 mmHg 54%
    06:00 +21°C° 0 mm 1 mps 642 mmHg 55%
    07:00 +23°C° 0 mm 1 mps 643 mmHg 48%
    08:00 +25°C° 0 mm 1 mps 643 mmHg 42%
    09:00 +28°C° 0 mm 1 mps 644 mmHg 35%
    10:00 +29°C° 0 mm 2 mps 644 mmHg 33%
    11:00 +29°C° 0 mm 2 mps 644 mmHg 31%
    12:00 +30°C° 0 mm 2 mps 644 mmHg 29%
    13:00 +30°C° 0 mm 2 mps 644 mmHg 32%
    14:00 +29°C° 0 mm 2 mps 643 mmHg 34%
    15:00 +28°C° 0 mm 2 mps 643 mmHg 37%
    16:00 +27°C° 0 mm 2 mps 642 mmHg 43%
    17:00 +26°C° 0 mm 2 mps 642 mmHg 49%
    18:00 +25°C° 0 mm 1 mps 641 mmHg 56%
    19:00 +23°C° 0 mm 1 mps 641 mmHg 61%
    20:00 +21°C° 0 mm 1 mps 641 mmHg 67%
    21:00 +19°C° 0 mm 1 mps 640 mmHg 72%
    22:00 +19°C° 0 mm 1 mps 640 mmHg 72%
    23:00 +19°C° 0 mm 1 mps 640 mmHg 72%

    25 Julio, Jueves

    Tiempo Temperatura Precipitaciones Viento Presión Humedad
    00:00 +18°C° 0 mm 1 mps 640 mmHg 72%
    01:00 +18°C° 0 mm 1 mps 639 mmHg 71%
    02:00 +18°C° 0 mm 1 mps 639 mmHg 71%
    03:00 +18°C° 0 mm 1 mps 639 mmHg 71%
    04:00 +19°C° 0 mm 1 mps 639 mmHg 68%
    05:00 +19°C° 0 mm 1 mps 639 mmHg 65%
    06:00 +20°C° 0 mm 1 mps 640 mmHg 63%
    07:00 +23°C° 0 mm 1 mps 640 mmHg 54%
    08:00 +25°C° 0 mm 2 mps 641 mmHg 45%
    09:00 +27°C° 0 mm 2 mps 642 mmHg 36%
    10:00 +28°C° 0 mm 2 mps 642 mmHg 34%
    11:00 +29°C° 0 mm 3 mps 642 mmHg 32%
    12:00 +30°C° 0 mm 3 mps 642 mmHg 29%
    13:00 +30°C° 0 mm 3 mps 642 mmHg 31%
    14:00 +30°C° 0 mm 3 mps 642 mmHg 32%
    15:00 +30°C° 0 mm 3 mps 642 mmHg 33%
    16:00 +28°C° 0 mm 2 mps 641 mmHg 41%
    17:00 +26°C° 0 mm 2 mps 641 mmHg 50%
    18:00 +25°C° 0 mm 1 mps 640 mmHg 58%
    19:00 +23°C° 0.1 mm 1 mps 640 mmHg 65%
    20:00 +21°C° 0.1 mm 1 mps 640 mmHg 72%
    21:00 +19°C° 0.1 mm 1 mps 640 mmHg 80%
    22:00 +18°C° 0 mm 1 mps 640 mmHg 80%
    23:00 +16°C° 0 mm 0 mps 640 mmHg 81%

    26 Julio, Viernes

    Tiempo Temperatura Precipitaciones Viento Presión Humedad
    00:00 +16°C° 0 mm 0 mps 640 mmHg 82%
    01:00 +15°C° 0 mm 0 mps 640 mmHg 82%
    02:00 +16°C° 0 mm 1 mps 640 mmHg 83%
    03:00 +16°C° 0 mm 1 mps 640 mmHg 83%
    04:00 +16°C° 0 mm 1 mps 640 mmHg 82%
    05:00 +15°C° 0 mm 0 mps 640 mmHg 80%
    06:00 +16°C° 0 mm 0 mps 640 mmHg 78%
    07:00 +20°C° 0 mm 1 mps 641 mmHg 70%
    08:00 +20°C° 0 mm 2 mps 642 mmHg 63%
    09:00 +23°C° 0 mm 2 mps 643 mmHg 56%
    10:00 +24°C° 0 mm 3 mps 643 mmHg 52%
    11:00 +25°C° 0 mm 4 mps 643 mmHg 48%
    12:00 +26°C° 0 mm 4 mps 643 mmHg 44%
    13:00 +26°C° 0 mm 4 mps 643 mmHg 45%
    14:00 +26°C° 0 mm 4 mps 643 mmHg 46%
    15:00 +25°C° 0 mm 5 mps 643 mmHg 47%
    16:00 +23°C° 0 mm 4 mps 643 mmHg 55%
    17:00 +21°C° 0 mm 2 mps 642 mmHg 62%
    18:00 +21°C° 0 mm 1 mps 642 mmHg 70%
    19:00 +19°C° 0.1 mm 1 mps 642 mmHg 77%
    20:00 +18°C° 0.1 mm 1 mps 642 mmHg 85%
    21:00 +15°C° 0.1 mm 1 mps 642 mmHg 92%
    22:00 +15°C° 0.1 mm 1 mps 642 mmHg 92%
    23:00 +15°C° 0.1 mm 1 mps 642 mmHg 92%
    Mostrar más